�������l�o���
Date,Time,MP-1(��Sv/h),MP-2(��Sv/h),MP-3(��Sv/h),MP-4(��Sv/h),MP-5(��Sv/h),MP-6(��Sv/h),MP-7(��Sv/h),MP-8(��Sv/h),����,����(m/s),���J
2021/03/09,00:00,0.647,0.950,0.597,1.188,0.844,0.374,0.661,0.621,�k�k��,4.9,��
2021/03/09,00:10,0.645,0.948,0.598,1.183,0.844,0.373,0.661,0.620,�k��,4.9,��
2021/03/09,00:20,0.646,0.948,0.598,1.186,0.845,0.374,0.659,0.619,�k�k��,4.6,��
2021/03/09,00:30,0.645,0.950,0.598,1.187,0.846,0.373,0.661,0.620,�k��,5.1,��
2021/03/09,00:40,0.646,0.947,0.598,1.187,0.845,0.374,0.661,0.622,�k��,5.2,��
2021/03/09,00:50,0.645,0.949,0.598,1.185,0.844,0.372,0.662,0.620,�k�k��,4.8,��
2021/03/09,01:00,0.646,0.949,0.598,1.187,0.843,0.374,0.661,0.621,�k�k��,5.2,��
2021/03/09,01:10,0.645,0.950,0.598,1.186,0.845,0.374,0.661,0.620,�k�k��,5.1,��
2021/03/09,01:20,0.645,0.949,0.597,1.185,0.843,0.373,0.661,0.620,�k��,5.3,��
2021/03/09,01:30,0.646,0.947,0.598,1.187,0.845,0.373,0.662,0.621,�k�k��,5.9,��
2021/03/09,01:40,0.644,0.950,0.596,1.187,0.845,0.372,0.661,0.621,�k�k��,6.5,��
2021/03/09,01:50,0.646,0.947,0.598,1.185,0.844,0.374,0.662,0.621,�k�k��,5.8,��
2021/03/09,02:00,0.646,0.948,0.598,1.188,0.844,0.372,0.660,0.620,�k�k��,5.9,��
2021/03/09,02:10,0.646,0.950,0.598,1.186,0.843,0.373,0.660,0.619,�k�k��,5.7,��
2021/03/09,02:20,0.646,0.949,0.599,1.185,0.843,0.374,0.659,0.621,�k�k��,5.7,��
2021/03/09,02:30,0.646,0.949,0.598,1.187,0.844,0.373,0.661,0.619,�k�k��,5.3,��
2021/03/09,02:40,0.647,0.950,0.598,1.186,0.842,0.373,0.663,0.621,�k�k��,5.7,��
2021/03/09,02:50,0.649,0.948,0.598,1.187,0.844,0.375,0.661,0.622,�k�k��,4.9,��
2021/03/09,03:00,0.647,0.949,0.597,1.185,0.843,0.373,0.663,0.620,�k�k��,5.1,��
2021/03/09,03:10,0.646,0.951,0.597,1.188,0.844,0.374,0.660,0.620,�k�k��,5.1,��
2021/03/09,03:20,0.646,0.948,0.598,1.186,0.844,0.373,0.661,0.620,�k�k��,5.1,��
2021/03/09,03:30,0.646,0.950,0.597,1.186,0.844,0.373,0.662,0.620,�k�k��,5.1,��
2021/03/09,03:40,0.645,0.946,0.596,1.186,0.843,0.373,0.661,0.621,�k�k��,5.0,��
2021/03/09,03:50,0.645,0.948,0.598,1.186,0.844,0.373,0.661,0.619,�k�k��,5.7,��
2021/03/09,04:00,0.646,0.948,0.598,1.189,0.844,0.372,0.662,0.621,�k�k��,5.8,��
2021/03/09,04:10,0.645,0.947,0.597,1.188,0.844,0.374,0.661,0.622,�k�k��,5.3,��
2021/03/09,04:20,0.646,0.948,0.598,1.185,0.843,0.372,0.661,0.621,�k�k��,5.5,��
2021/03/09,04:30,0.647,0.949,0.597,1.188,0.844,0.373,0.661,0.619,�k��,5.5,��
2021/03/09,04:40,0.645,0.948,0.597,1.188,0.843,0.373,0.663,0.622,�k��,5.6,��
2021/03/09,04:50,0.647,0.947,0.598,1.188,0.842,0.374,0.660,0.622,�k�k��,5.2,��
2021/03/09,05:00,0.647,0.948,0.597,1.185,0.842,0.372,0.661,0.619,�k�k��,5.4,��
2021/03/09,05:10,0.647,0.948,0.597,1.185,0.843,0.373,0.663,0.620,�k��,5.2,��
2021/03/09,05:20,0.645,0.949,0.597,1.186,0.844,0.371,0.662,0.621,�k��,4.7,��
2021/03/09,05:30,0.646,0.947,0.595,1.184,0.844,0.373,0.662,0.622,�k��,5.0,��
2021/03/09,05:40,0.645,0.949,0.597,1.183,0.845,0.372,0.660,0.621,�k��,5.3,��
2021/03/09,05:50,0.647,0.948,0.595,1.188,0.843,0.373,0.659,0.621,�k��,5.5,��
2021/03/09,06:00,0.647,0.947,0.597,1.184,0.841,0.372,0.662,0.621,�k��,5.6,��
2021/03/09,06:10,0.647,0.948,0.597,1.187,0.843,0.373,0.660,0.621,�k��,5.5,��
2021/03/09,06:20,0.645,0.950,0.596,1.186,0.843,0.373,0.661,0.620,�k��,5.2,��
2021/03/09,06:30,0.646,0.948,0.599,1.186,0.843,0.372,0.660,0.621,�k�k��,5.2,��
2021/03/09,06:40,0.646,0.947,0.596,1.186,0.842,0.374,0.661,0.621,�k��,5.4,��
2021/03/09,06:50,0.645,0.950,0.596,1.188,0.844,0.372,0.661,0.620,�k��,5.2,��
2021/03/09,07:00,0.648,0.947,0.597,1.187,0.843,0.373,0.662,0.621,�k��,5.1,��
2021/03/09,07:10,0.646,0.947,0.597,1.187,0.843,0.372,0.661,0.620,�k��,5.3,��
2021/03/09,07:20,0.644,0.948,0.597,1.185,0.841,0.373,0.662,0.621,�k��,5.4,��
2021/03/09,07:30,0.649,0.951,0.598,1.186,0.843,0.374,0.660,0.621,�k��,4.5,��
2021/03/09,07:40,0.646,0.951,0.598,1.185,0.842,0.374,0.662,0.619,�k��,3.6,��
2021/03/09,07:50,0.648,0.950,0.597,1.187,0.844,0.373,0.662,0.621,�k�k��,3.7,��
2021/03/09,08:00,0.647,0.947,0.598,1.188,0.844,0.374,0.662,0.621,�k�k��,3.7,��
2021/03/09,08:10,0.647,0.949,0.598,1.185,0.844,0.374,0.663,0.621,�k�k��,3.3,��
2021/03/09,08:20,0.647,0.951,0.599,1.187,0.844,0.372,0.663,0.622,�k�k��,3.3,��
2021/03/09,08:30,0.648,0.948,0.597,1.188,0.842,0.373,0.663,0.622,�k�k��,4.0,��
2021/03/09,08:40,0.648,0.947,0.597,1.187,0.842,0.374,0.663,0.622,�k�k��,3.3,��
2021/03/09,08:50,0.649,0.948,0.597,1.186,0.845,0.373,0.664,0.622,�k�k��,3.1,��
2021/03/09,09:00,0.649,0.948,0.597,1.187,0.843,0.374,0.663,0.621,�k��,2.8,��
2021/03/09,09:10,0.648,0.946,0.598,1.187,0.844,0.373,0.662,0.621,�k�k��,2.5,��
2021/03/09,09:20,0.646,0.946,0.597,1.186,0.844,0.374,0.660,0.622,�k�k��,3.0,��
2021/03/09,09:30,0.646,0.945,0.599,1.188,0.845,0.373,0.662,0.622,�k�k��,3.2,��
2021/03/09,09:40,0.647,0.946,0.600,1.187,0.846,0.374,0.661,0.623,�k�k��,3.1,��
2021/03/09,09:50,0.647,0.945,0.597,1.187,0.843,0.374,0.661,0.623,�k�k��,4.0,��
2021/03/09,10:00,0.648,0.946,0.599,1.188,0.842,0.374,0.661,0.623,�k�k��,3.8,��
2021/03/09,10:10,0.646,0.946,0.601,1.187,0.845,0.374,0.661,0.619,�k��,3.5,��
2021/03/09,10:20,0.648,0.947,0.599,1.187,0.845,0.375,0.663,0.621,���k��,4.0,��
2021/03/09,10:30,0.647,0.944,0.600,1.185,0.846,0.374,0.662,0.620,�k��,4.0,��
2021/03/09,10:40,0.649,0.947,0.598,1.187,0.845,0.374,0.661,0.619,�k��,3.5,��
2021/03/09,10:50,0.648,0.947,0.601,1.187,0.845,0.373,0.661,0.619,�k��,3.3,��
2021/03/09,11:00,0.650,0.947,0.600,1.185,0.847,0.374,0.662,0.621,���k��,3.1,��
2021/03/09,11:10,0.648,0.946,0.599,1.185,0.844,0.374,0.660,0.621,���k��,3.4,��
2021/03/09,11:20,0.649,0.947,0.601,1.189,0.846,0.374,0.661,0.620,��,3.7,��
2021/03/09,11:30,0.648,0.946,0.600,1.187,0.844,0.372,0.662,0.620,��,4.3,��
2021/03/09,11:40,0.649,0.948,0.599,1.186,0.845,0.374,0.662,0.621,��,4.0,��
2021/03/09,11:50,0.649,0.949,0.600,1.188,0.845,0.376,0.661,0.622,���쓌,4.3,��
2021/03/09,12:00,0.648,0.951,0.600,1.188,0.845,0.374,0.661,0.621,��,4.3,��
2021/03/09,12:10,0.648,0.949,0.600,1.190,0.847,0.374,0.663,0.620,���쓌,4.9,��
2021/03/09,12:20,0.648,0.951,0.600,1.188,0.844,0.376,0.662,0.621,���쓌,4.1,��
2021/03/09,12:30,0.649,0.953,0.599,1.189,0.845,0.375,0.663,0.623,��,3.5,��
2021/03/09,12:40,0.647,0.951,0.600,1.188,0.845,0.375,0.662,0.623,���쓌,4.4,��
2021/03/09,12:50,0.647,0.952,0.600,1.188,0.845,0.375,0.663,0.622,���쓌,4.1,��
2021/03/09,13:00,0.647,0.950,0.599,1.189,0.846,0.375,0.661,0.621,�쓌,4.2,��
2021/03/09,13:10,0.648,0.950,0.599,1.189,0.845,0.375,0.662,0.622,���쓌,4.1,��
2021/03/09,13:20,0.649,0.949,0.600,1.189,0.846,0.376,0.664,0.620,�쓌,4.4,��
2021/03/09,13:30,0.649,0.950,0.601,1.187,0.846,0.375,0.664,0.620,�쓌,3.8,��
2021/03/09,13:40,0.648,0.950,0.598,1.189,0.846,0.375,0.663,0.621,���쓌,2.6,��
2021/03/09,13:50,0.650,0.951,0.599,1.189,0.847,0.376,0.663,0.621,���쓌,3.5,��
2021/03/09,14:00,0.650,0.952,0.601,1.191,0.847,0.374,0.662,0.622,���쓌,3.8,��
2021/03/09,14:10,0.648,0.949,0.598,1.190,0.847,0.374,0.664,0.621,�쓌,4.4,��
2021/03/09,14:20,0.649,0.952,0.602,1.189,0.843,0.375,0.663,0.618,�쓌,3.3,��
2021/03/09,14:30,0.648,0.952,0.601,1.190,0.844,0.378,0.663,0.621,�쓌,4.0,��
2021/03/09,14:40,0.649,0.952,0.599,1.188,0.839,0.375,0.664,0.619,���쓌,3.2,��
2021/03/09,14:50,0.652,0.950,0.602,1.188,0.845,0.376,0.664,0.620,�쓌,3.1,��
2021/03/09,15:00,0.649,0.953,0.602,1.189,0.841,0.376,0.662,0.618,�쓌,3.0,��
2021/03/09,15:10,0.648,0.955,0.602,1.190,0.847,0.376,0.663,0.620,��쓌,3.6,��
2021/03/09,15:20,0.647,0.954,0.602,1.190,0.842,0.376,0.663,0.619,��쓌,3.5,��
2021/03/09,15:30,0.648,0.957,0.602,1.188,0.840,0.375,0.663,0.619,��쓌,3.8,��
2021/03/09,15:40,0.649,0.955,0.601,1.190,0.847,0.377,0.663,0.620,��쓌,3.4,��
2021/03/09,15:50,0.648,0.955,0.600,1.190,0.848,0.376,0.663,0.620,��쓌,6.2,��
2021/03/09,16:00,0.650,0.957,0.603,1.189,0.848,0.377,0.663,0.620,��쓌,6.3,��
2021/03/09,16:10,0.648,0.955,0.601,1.187,0.848,0.377,0.664,0.621,��쓌,6.5,��
2021/03/09,16:20,0.647,0.956,0.601,1.191,0.847,0.377,0.662,0.623,��,7.7,��
2021/03/09,16:30,0.649,0.953,0.602,1.187,0.848,0.376,0.664,0.622,��,6.5,��
2021/03/09,16:40,0.649,0.956,0.602,1.190,0.848,0.377,0.664,0.622,��,6.8,��
2021/03/09,16:50,0.649,0.954,0.601,1.191,0.847,0.376,0.664,0.622,��,6.7,��
2021/03/09,17:00,0.648,0.953,0.602,1.187,0.846,0.376,0.665,0.623,��,7.1,��
2021/03/09,17:10,0.649,0.954,0.602,1.190,0.847,0.376,0.663,0.623,��,6.6,��
2021/03/09,17:20,0.649,0.953,0.603,1.191,0.848,0.377,0.665,0.621,��,9.3,��
2021/03/09,17:30,0.649,0.954,0.601,1.191,0.849,0.377,0.663,0.623,��,8.4,��
2021/03/09,17:40,0.650,0.954,0.603,1.190,0.848,0.376,0.665,0.623,��,9.2,��
2021/03/09,17:50,0.651,0.955,0.601,1.188,0.848,0.376,0.665,0.621,��,8.8,��
2021/03/09,18:00,0.650,0.954,0.601,1.191,0.849,0.376,0.666,0.624,��,8.0,��
2021/03/09,18:10,0.649,0.955,0.602,1.189,0.849,0.377,0.666,0.624,��쐼,8.2,��
2021/03/09,18:20,0.650,0.954,0.602,1.190,0.850,0.377,0.665,0.623,��쐼,6.7,��
2021/03/09,18:30,0.650,0.954,0.602,1.190,0.849,0.377,0.665,0.623,��쐼,7.2,��
2021/03/09,18:40,0.651,0.954,0.604,1.190,0.849,0.378,0.665,0.623,��쐼,6.5,��
2021/03/09,18:50,0.652,0.954,0.603,1.190,0.850,0.377,0.666,0.623,��쐼,6.3,��
2021/03/09,19:00,0.650,0.953,0.603,1.189,0.850,0.375,0.667,0.623,��쐼,6.2,��
2021/03/09,19:10,0.651,0.953,0.602,1.189,0.850,0.376,0.666,0.623,��쐼,5.1,��
2021/03/09,19:20,0.649,0.953,0.601,1.189,0.849,0.376,0.665,0.622,��쐼,4.6,��
2021/03/09,19:30,0.651,0.952,0.601,1.190,0.847,0.376,0.665,0.623,��쐼,3.7,��
2021/03/09,19:40,0.652,0.953,0.602,1.188,0.847,0.375,0.665,0.623,��쐼,3.0,��
2021/03/09,19:50,0.653,0.952,0.602,1.190,0.848,0.376,0.667,0.622,��쐼,3.3,��
2021/03/09,20:00,0.651,0.954,0.600,1.191,0.850,0.376,0.664,0.623,�쐼,3.4,��
2021/03/09,20:10,0.652,0.955,0.601,1.190,0.851,0.376,0.665,0.622,���쐼,1.7,��
2021/03/09,20:20,0.652,0.954,0.601,1.192,0.849,0.376,0.663,0.621,��쐼,2.6,��
2021/03/09,20:30,0.650,0.953,0.603,1.192,0.846,0.377,0.665,0.624,��쐼,3.0,��
2021/03/09,20:40,0.651,0.955,0.602,1.190,0.849,0.377,0.666,0.623,��쐼,2.5,��
2021/03/09,20:50,0.650,0.954,0.602,1.188,0.850,0.376,0.665,0.621,��쐼,2.8,��
2021/03/09,21:00,0.650,0.954,0.601,1.190,0.850,0.376,0.666,0.623,��,3.5,��
2021/03/09,21:10,0.652,0.955,0.601,1.188,0.850,0.377,0.664,0.623,��쐼,3.9,��
2021/03/09,21:20,0.652,0.952,0.601,1.188,0.850,0.377,0.665,0.622,��쐼,3.1,��
2021/03/09,21:30,0.652,0.954,0.602,1.191,0.849,0.376,0.666,0.623,��쐼,3.3,��
2021/03/09,21:40,0.652,0.954,0.602,1.191,0.849,0.376,0.666,0.623,��쐼,3.5,��
2021/03/09,21:50,0.651,0.954,0.602,1.190,0.849,0.376,0.665,0.623,��쐼,3.3,��
2021/03/09,22:00,0.651,0.953,0.602,1.188,0.848,0.376,0.665,0.622,��쐼,3.3,��
2021/03/09,22:10,0.653,0.953,0.602,1.190,0.851,0.377,0.665,0.623,��,2.9,�L
2021/03/09,22:20,0.652,0.953,0.602,1.190,0.849,0.376,0.667,0.624,��,2.6,��
2021/03/09,22:30,0.652,0.954,0.601,1.190,0.849,0.376,0.664,0.624,��,1.9,��
2021/03/09,22:40,0.651,0.955,0.602,1.191,0.850,0.378,0.665,0.622,�쐼,1.7,��
2021/03/09,22:50,0.652,0.954,0.601,1.189,0.850,0.377,0.665,0.622,�쐼,1.5,�L
2021/03/09,23:00,0.651,0.953,0.603,1.189,0.850,0.376,0.666,0.622,��,1.1,��
2021/03/09,23:10,0.650,0.954,0.603,1.191,0.849,0.376,0.666,0.623,�쐼,1.9,��
2021/03/09,23:20,0.651,0.954,0.603,1.193,0.848,0.377,0.667,0.625,��쐼,1.4,��
2021/03/09,23:30,0.652,0.953,0.601,1.193,0.849,0.376,0.665,0.624,��,1.9,��
2021/03/09,23:40,0.651,0.954,0.601,1.191,0.850,0.377,0.665,0.623,��,3.0,��
2021/03/09,23:50,0.652,0.956,0.602,1.191,0.849,0.378,0.665,0.622,��,3.5,��
